This demonstration page uses our WeatherBlox Daily Observations layout. Learn more.

Left ArrowRight Arrow

Hourly Observations for November 29, 2015

Temp ( °F °C ) Dew Point ( °F °C ) Humidity (%) Winds ( mph kmh ) Pressure ( in mb ) Visibility ( mi km ) Precip ( " mm )
12:53 am 00:53 Cloudy 27 -2.8 18 -7.8 69 69 NE 5 7 30.40 1030 10 16 0.00 0.00
1:53 am 01:53 Cloudy 27 -2.8 18 -7.8 69 69 E 7 11 30.38 1029 10 16 0.00 0.00
2:53 am 02:53 Cloudy 26 -3.3 19 -7.2 75 75 E 8 13 30.36 1028 10 16 0.00 0.00
3:32 am 03:32 Cloudy 27 -3 19 -7 74 74 ENE 5 7 30.39 1029 10 16 0.00 0.00
3:53 am 03:53 Cloudy 27 -2.8 18 -7.8 69 69 E 6 9 30.35 1028 10 16 0.00 0.00
4:19 am 04:19 Cloudy 26 -3.3 19 -7.2 75 75 ENE 3 6 30.39 1029 10 16 0.00 0.00
4:26 am 04:26 Cloudy 27 -3 19 -7 74 74 Calm 30.39 1029 10 16 0.00 0.00
4:53 am 04:53 Cloudy 26 -3.3 19 -7.2 75 75 ENE 3 6 30.34 1027 10 16 0.00 0.00
5:53 am 05:53 Cloudy 26 -3.3 20 -6.7 78 78 VRB 3 6 30.34 1027 10 16 0.00 0.00
6:53 am 06:53 Cloudy 26 -3.3 20 -6.7 78 78 NE 3 6 30.34 1028 10 16 0.00 0.00
7:37 am 07:37 Cloudy with Mist and Fog 26 -3.3 22 -5.6 84 84 ENE 5 7 30.39 1029 6 10 0.00 0.00
7:53 am 07:53 Cloudy 26 -3.3 22 -5.6 84 84 ENE 6 9 30.33 1027 8 13 0.00 0.00
8:39 am 08:39 Cloudy 27 -2.8 22 -5.6 81 81 E 3 6 30.39 1029 8 13 0.00 0.00
8:53 am 08:53 Cloudy 27 -2.8 22 -5.6 81 81 Calm 30.34 1027 10 16 0.00 0.00
9:53 am 09:53 Cloudy with Mist and Fog 27 -2.8 23 -5 85 85 NE 7 11 30.32 1027 3 5 0.00 0.00
10:53 am 10:53 Cloudy with Mist and Fog 28 -2.2 24 -4.4 85 85 NNE 3 6 30.33 1027 4 6 0.00 0.00
11:17 am 11:17 Cloudy with Mist and Fog 28 -2 25 -4 86 86 N 5 7 30.36 1028 3 4 0.00 0.00
11:53 am 11:53 Cloudy with Mist and Fog 28 -2.2 25 -3.9 88 88 ENE 5 7 30.32 1027 3 4 0.00 0.00
12:13 pm 12:13 Cloudy with Mist and Fog 28 -2.2 24 -4.4 85 85 NE 6 9 30.33 1027 3 5 0.00 0.00
12:53 pm 12:53 Cloudy with Mist and Fog 28 -2.2 25 -3.9 88 88 NE 5 7 30.29 1026 4 6 0.00 0.00
1:29 pm 13:29 Cloudy with Mist and Fog 28 -2.2 25 -3.9 88 88 NE 5 7 30.30 1026 3 4 0.00 0.00
1:42 pm 13:42 Cloudy with Mist and Fog 28 -2 25 -4 86 86 NNE 6 9 30.30 1026 5 8 0.00 0.00
1:53 pm 13:53 Cloudy with Mist and Fog 29 -1.7 25 -3.9 85 85 NE 6 9 30.26 1025 6 10 0.00 0.00
2:53 pm 14:53 Cloudy with Mist and Fog 29 -1.7 26 -3.3 89 89 ENE 5 7 30.25 1025 5 8 0.00 0.00
3:11 pm 15:11 Cloudy with Mist and Fog 29 -1.7 26 -3.3 89 89 ENE 5 7 30.27 1025 2 3 0.00 0.00
3:21 pm 15:21 Cloudy with Mist and Fog 28 -2 27 -3 93 93 ENE 6 9 30.27 1025 2 2 0.00 0.00
3:49 pm 15:49 Cloudy with Mist and Fog 28 -2 27 -3 93 93 ENE 5 7 30.27 1025 3 5 0.00 0.00
3:53 pm 15:53 Cloudy with Mist and Fog 29 -1.7 26 -3.3 89 89 E 5 7 30.24 1024 3 5 0.00 0.00
4:15 pm 16:15 Cloudy with Mist and Fog 29 -1.7 26 -3.3 89 89 E 5 7 30.27 1025 3 4 0.00 0.00
4:36 pm 16:36 Cloudy with Mist and Fog 29 -1.7 26 -3.3 89 89 Calm 30.27 1025 2 3 0.00 0.00
4:53 pm 16:53 Cloudy with Mist and Fog 29 -1.7 27 -2.8 92 92 E 3 6 30.24 1024 2 3 0.00 0.00
5:32 pm 17:32 Cloudy with Mist and Fog 29 -1.7 27 -2.8 92 92 ENE 5 7 30.27 1025 2 3 0.00 0.00
5:53 pm 17:53 Cloudy with Mist and Fog 29 -1.7 27 -2.8 92 92 ENE 5 7 30.24 1024 3 4 0.00 0.00
6:19 pm 18:19 Cloudy with Mist and Fog 29 -1.7 27 -2.8 92 92 ENE 6 9 30.24 1024 3 5 0.00 0.00
6:53 pm 18:53 Cloudy with Mist and Fog 29 -1.7 27 -2.8 92 92 ENE 6 9 30.23 1024 4 6 0.00 0.00
7:53 pm 19:53 Cloudy with Mist and Fog 30 -1.1 28 -2.2 92 92 NE 6 9 30.22 1023 3 4 0.00 0.00
8:31 pm 20:31 Cloudy with Mist and Fog 30 -1.1 28 -2.2 92 92 E 6 9 30.24 1024 3 4 0.00 0.00
8:53 pm 20:53 Cloudy with Mist and Fog 30 -1.1 28 -2.2 92 92 E 5 7 30.22 1023 3 5 0.00 0.00
9:14 pm 21:14 Cloudy with Mist and Fog 30 -1 28 -2 93 93 ENE 3 6 30.24 1024 3 5 0.00 0.00
9:20 pm 21:20 Cloudy with Mist and Fog 30 -1 28 -2 93 93 ENE 5 7 30.24 1024 3 4 0.00 0.00
9:35 pm 21:35 Cloudy with Mist and Fog 30 -1 28 -2 93 93 ENE 7 11 30.24 1024 3 5 0.00 0.00
9:53 pm 21:53 Cloudy with Mist and Fog 30 -1.1 28 -2.2 92 92 ENE 5 7 30.19 1023 5 8 0.00 0.00
10:17 pm 22:17 Cloudy 30 -1.1 28 -2.2 92 92 ESE 3 6 30.21 1023 8 13 0.00 0.00
10:53 pm 22:53 Cloudy 30 -1.1 28 -2.2 92 92 E 5 7 30.18 1022 8 13 0.00 0.00
11:03 pm 23:03 Cloudy 30 -1 27 -3 86 86 E 6 9 30.21 1023 8 13 0.00 0.00
11:35 pm 23:35 Cloudy 30 -1.1 28 -2.2 92 92 ESE 5 7 30.21 1023 8 13 0.00 0.00
11:53 pm 23:53 Cloudy 30 -1.1 28 -2.2 92 92 SE 3 6 30.16 1022 10 16 0.00 0.00

Powered by AerisWeather